Location: Newark
(48.6461°N, 4.3644°W)
Time: 01:10:51
(UTC+00:00)

ISS - Visible Passes

Search period start: 22 January 2021 00:00
Search period end: 01 February 2021 00:00
Orbit: 418 x 421 km, 51.6° (Epoch: 22 January)

Date Brightness Start Highest point End Pass type
(mag) Time Alt. Az. Time Alt. Az. Time Alt. Az.
22 Jan -2.3 17:41:24 10° SSW 17:44:14 25° SE 17:47:05 10° E visible
22 Jan -3.0 19:17:25 10° WSW 19:20:06 53° W 19:20:06 53° W visible
23 Jan -3.8 18:30:03 10° WSW 18:33:25 78° SSE 18:34:44 34° ENE visible
23 Jan -0.5 20:07:06 10° W 20:07:43 14° WNW 20:07:43 14° WNW visible
24 Jan -3.4 17:42:46 10° SW 17:46:04 55° SSE 17:49:20 10° ENE visible
24 Jan -2.8 19:19:37 10° W 19:22:18 45° NW 19:22:18 45° NW visible
25 Jan -3.6 18:32:07 10° W 18:35:29 63° NNW 18:36:51 32° ENE visible
25 Jan -0.5 20:09:16 10° WNW 20:09:50 14° WNW 20:09:50 14° WNW visible
26 Jan -3.7 17:44:38 10° WSW 17:48:02 79° NNW 17:51:24 10° ENE visible
26 Jan -2.6 19:21:47 10° WNW 19:24:22 40° NW 19:24:22 40° NW visible
27 Jan -3.3 18:34:17 10° W 18:37:35 49° N 18:38:53 30° NE visible
27 Jan -0.6 20:11:17 10° WNW 20:11:51 14° WNW 20:11:51 14° WNW visible
28 Jan -3.3 17:46:45 10° W 17:50:05 54° N 17:53:25 10° ENE visible
28 Jan -2.7 19:23:51 10° WNW 19:26:23 43° NW 19:26:23 43° NW visible
29 Jan -3.4 18:36:22 10° WNW 18:39:41 51° N 18:40:56 31° ENE visible
29 Jan -0.6 20:13:14 10° WNW 20:13:54 15° WNW 20:13:54 15° WNW visible
30 Jan -3.3 17:48:51 10° WNW 17:52:09 48° N 17:55:27 10° ENE visible
30 Jan -3.1 19:25:46 10° WNW 19:28:29 54° WNW 19:28:29 54° WNW visible
31 Jan -3.8 18:38:18 10° WNW 18:41:41 69° NNE 18:43:07 31° E visible
31 Jan -0.6 20:15:18 10° W 20:16:06 15° W 20:16:06 15° W visible
